Theta_e
296 289 284 287 289 285 285 283 282 284 289 289 288 290 293 293 291 290 290 290 292 294 298 299 307 317 322 323 324 326 326 329 330 328 327 328 327 327 327 329 328 328 330 330
292 287 290 292 292 289 287 283 282 286 290 287 285 286 289 290 290 291 291 290 291 292 295 298 298 306 314 320 322 324 325 326 328 329 329 327 328 327 328 329 327 328 328 329
288 291 295 291 289 288 287 284 283 284 287 286 286 282 286 290 291 291 293 293 292 292 294 296 296 298 309 313 316 320 321 324 326 328 327 323 323 321 322 324 326 327 327 326
290 294 292 291 288 287 283 288 288 286 284 278 282 273 281 285 287 288 290 289 292 294 294 296 296 296 298 305 308 310 310 313 321 324 324 324 324 323 325 325 327 326 324 325
286 290 290 288 290 290 286 289 287 286 282 279 278 276 279 282 283 286 288 289 289 292 294 296 297 297 298 299 300 303 305 307 311 317 322 322 322 322 322 320 322 322 322 324
289 293 292 290 294 293 292 287 286 283 281 273 278 278 276 282 285 287 288 289 291 290 292 294 297 298 298 298 301 302 303 304 306 309 316 317 318 319 316 316 315 317 319 320
289 289 292 293 289 293 290 285 271 270 267 271 279 277 280 285 287 287 288 289 291 292 293 294 296 298 299 301 303 305 305 305 306 306 307 313 315 316 315 316 314 313 313 315
281 280 289 293 290 288 288 286 277 269 271 274 280 276 280 288 291 291 291 291 291 292 293 294 295 298 301 302 303 304 305 304 303 305 306 308 310 308 309 311 311 312 312 314
280 280 290 292 293 293 287 284 287 280 274 273 277 280 286 289 289 290 290 289 290 291 292 292 294 296 298 299 301 301 300 299 299 300 300 299 300 301 302 302 303 302 301 303
286 279 288 291 293 293 290 291 281 280 267 266 276 277 279 284 287 289 290 291 291 291 291 292 295 297 297 296 296 297 297 296 297 297 297 297 297 298 298 299 298 299 299 300
288 283 282 289 286 286 288 286 287 286 279 273 270 275 283 286 287 288 289 291 292 293 293 293 295 295 295 295 294 294 294 294 294 295 294 293 293 294 294 294 294 295 298 298
288 283 278 281 287 291 291 287 287 280 274 276 278 277 286 287 288 288 289 291 293 292 293 294 295 294 294 293 293 291 291 291 292 291 290 289 290 290 290 290 291 292 292 294
287 282 277 277 283 288 285 287 289 287 284 279 274 277 290 289 288 289 290 291 291 291 293 293 293 292 291 290 289 288 288 288 289 288 287 286 285 285 285 286 287 289 290 290
289 279 273 273 277 281 281 284 287 286 281 281 281 282 285 285 285 287 287 290 287 285 287 291 292 291 289 287 286 285 285 285 285 284 282 282 282 282 283 284 285 286 287 287
286 274 278 277 278 279 275 277 280 280 281 277 280 279 283 285 286 287 289 289 285 283 281 281 282 281 282 282 282 282 281 281 281 280 279 279 280 280 281 281 282 283 283 283
285 275 276 275 280 279 277 279 279 277 279 279 279 278 285 288 288 283 281 283 281 278 277 275 275 276 277 278 278 278 277 278 278 277 276 277 278 278 279 279 279 280 279 280
282 276 270 273 279 278 273 277 279 280 281 279 274 280 282 281 280 274 275 276 275 274 275 274 273 273 274 274 275 274 275 276 276 275 275 275 276 276 276 277 278 277 277 278
278 274 274 270 273 267 275 280 282 280 281 283 282 279 278 276 273 272 273 273 273 273 273 273 272 272 272 274 274 274 274 273 273 273 273 274 274 274 275 275 275 275 276 277
282 277 273 269 264 268 274 276 277 277 277 280 280 276 276 274 273 270 272 272 271 272 272 272 272 271 271 272 273 272 271 271 272 272 272 272 273 274 274 273 274 275 275 276
283 283 275 267 261 261 273 275 276 279 271 276 276 273 273 276 272 271 270 271 271 271 272 271 271 271 270 271 272 271 270 269 269 270 271 272 273 274 272 273 273 275 275 276
273 274 271 264 265 266 275 276 277 267 272 273 273 272 272 274 271 270 270 268 269 269 270 270 269 268 268 269 270 269 268 267 268 269 270 270 270 271 271 271 272 273 273 273
272 271 265 267 268 267 273 275 275 274 272 272 271 271 271 270 269 268 267 267 266 266 267 268 267 266 266 267 267 265 264 266 266 267 267 267 267 268 269 268 269 270 270 270
270 272 270 271 271 270 269 270 271 272 270 270 270 270 270 268 265 265 264 264 264 264 265 266 265 265 264 265 264 263 263 264 264 265 264 265 266 266 267 267 267 267 268 268
273 271 272 272 271 268 268 268 270 269 268 270 270 269 268 264 264 263 264 264 263 263 262 262 262 261 261 262 263 262 262 262 261 261 263 264 264 264 265 266 266 266 266 266
272 271 270 270 267 263 264 266 267 266 267 266 265 265 265 266 265 265 264 263 262 262 262 260 259 260 259 260 260 258 261 261 260 261 262 262 263 263 263 264 264 265 266 267
269 272 272 274 272 271 266 268 267 264 262 263 263 263 266 266 265 265 264 263 263 262 262 261 261 260 260 260 260 260 260 260 260 260 260 261 261 261 262 262 262 265 267 269
Wind_Speed
4 3 9 8 8 2 5 4 5 3 4 6 8 10 11 9 7 9 10 10 8 9 10 8 9 9 11 11 13 15 14 14 10 7 6 6 9 8 6 9 10 10 10 10
3 9 4 5 5 6 2 2 3 5 2 4 3 11 10 7 8 10 10 10 11 7 7 10 8 9 10 14 14 14 14 14 12 9 8 5 7 6 9 7 8 11 10 10
7 1 14 9 5 7 6 5 3 3 4 4 4 9 9 7 8 9 13 13 9 12 13 11 9 8 9 12 12 12 13 14 13 13 6 2 2 1 3 4 6 10 10 7
7 11 3 3 5 7 7 8 7 5 3 5 1 8 7 5 7 6 11 11 16 16 12 12 9 8 9 10 7 8 8 9 10 12 9 11 10 9 6 5 7 6 6 8
8 8 13 15 7 8 5 6 7 4 3 1 3 3 8 3 5 10 9 11 12 14 14 15 14 10 9 7 8 7 6 7 7 9 10 9 10 6 3 3 5 5 5 9
7 1 7 6 11 11 4 4 6 5 3 5 8 8 6 6 9 8 7 6 9 10 9 9 9 6 6 4 5 6 7 6 5 6 7 7 8 8 5 5 4 4 4 4
6 9 2 3 7 6 6 10 2 4 3 8 2 5 10 5 8 6 9 9 10 8 8 9 8 7 6 7 6 4 6 4 3 3 3 5 7 7 7 6 4 4 3 3
8 6 14 6 6 8 15 10 7 9 6 4 4 9 8 11 10 7 10 9 9 8 4 3 6 5 4 6 6 5 4 5 7 7 7 6 6 0 1 2 3 3 2 2
6 6 2 4 5 9 7 13 5 3 1 3 6 7 10 6 4 3 4 3 7 5 1 3 5 6 6 3 4 6 7 7 8 7 6 6 6 7 5 6 6 4 5 4
3 1 4 10 4 6 8 10 5 1 2 4 4 4 5 4 6 7 7 7 8 7 5 1 4 6 7 7 6 9 8 8 7 7 7 7 7 8 7 7 7 6 5 6
1 2 1 7 8 15 4 6 4 3 6 5 1 6 8 7 7 8 10 11 8 8 6 5 6 6 8 7 8 8 8 8 8 8 8 9 8 9 8 8 8 7 7 7
8 4 5 7 1 1 17 7 9 6 4 3 2 7 5 10 9 7 8 11 13 8 4 4 6 7 8 8 8 8 7 8 7 7 9 10 10 10 11 10 9 9 8 7
6 3 3 1 8 4 4 4 6 4 1 9 5 6 8 10 8 7 9 11 11 15 12 9 8 7 7 8 9 9 9 10 10 10 11 11 11 10 10 10 10 9 9 8
4 3 6 5 3 2 3 4 2 3 6 13 14 11 4 13 10 10 5 7 9 13 14 7 9 9 9 10 10 10 11 10 10 11 12 11 11 10 9 9 9 9 9 9
4 2 2 4 6 5 2 2 1 3 2 2 4 7 11 10 8 7 5 6 8 11 13 15 13 12 12 11 10 11 12 11 10 11 11 10 9 9 8 9 9 8 9 8
2 2 3 2 4 5 0 5 5 5 5 8 10 17 9 10 3 9 11 10 10 11 11 11 13 13 13 12 11 11 10 10 9 9 9 9 9 9 9 8 7 7 8 8
4 6 3 3 6 5 4 11 10 6 6 7 6 10 4 4 6 7 8 9 10 10 9 10 11 10 11 11 10 10 9 9 9 10 10 10 9 9 9 8 8 9 9 7
4 5 2 3 3 4 8 5 13 12 7 12 7 5 6 5 7 6 7 6 8 8 9 9 8 8 9 8 7 7 8 9 10 10 10 10 9 9 9 9 9 8 8 7
5 5 3 4 4 4 7 5 7 8 9 6 10 9 9 7 4 2 5 7 7 7 7 6 7 7 7 8 8 7 9 9 9 10 9 10 11 9 9 10 10 9 8 7
4 2 4 4 5 7 8 2 1 2 6 6 5 8 7 9 6 4 3 5 6 7 7 7 7 7 9 10 8 8 9 10 10 10 9 8 10 10 9 9 10 9 8 9
3 1 5 3 3 9 9 6 3 7 9 4 5 5 7 6 2 9 9 7 6 6 7 5 7 8 9 10 8 9 9 11 10 10 9 9 10 9 10 9 8 9 9 9
7 6 4 3 3 9 5 5 9 5 2 5 4 4 4 8 10 10 8 7 7 6 6 7 6 7 8 9 7 8 9 8 9 8 8 8 8 8 8 9 8 8 8 7
1 7 7 10 9 1 2 1 0 1 4 3 5 4 8 8 3 5 5 4 5 6 6 6 5 5 6 6 8 8 8 9 8 6 6 6 7 8 9 8 9 7 7 6
3 2 4 4 7 7 4 1 2 2 3 6 6 8 6 7 7 5 4 4 4 3 5 5 5 3 5 6 5 4 5 7 5 5 7 7 7 9 8 6 6 6 6 7
4 5 5 6 4 4 4 4 6 6 7 8 6 4 7 10 8 7 6 5 4 2 4 4 3 2 1 2 1 2 3 5 6 6 6 7 6 7 7 6 6 7 7 9
7 9 7 10 2 2 2 8 10 9 5 6 6 5 5 7 9 8 6 4 4 4 4 3 2 1 2 3 3 3 4 6 6 6 6 6 6 6 6 6 7 11 14 16
Wind_Direction
195 149 202 195 209 100 144 174 183 223 242 168 218 242 248 261 302 286 267 256 254 242 260 247 228 226 214 203 194 192 188 193 179 176 184 206 217 219 222 221 219 211 218 217
137 233 207 225 215 227 223 223 261 288 300 178 256 261 257 231 238 238 249 259 246 249 263 262 241 222 211 205 199 197 196 189 188 186 196 187 190 213 217 213 213 213 213 208
220 189 194 186 187 202 237 206 205 233 9 330 334 284 253 242 236 243 251 245 251 227 240 247 252 238 220 208 202 201 201 192 191 192 184 109 111 57 169 209 218 223 217 200
228 233 155 174 213 162 230 190 196 208 123 234 110 280 275 247 242 219 246 237 238 238 235 236 238 229 217 219 206 206 192 193 199 186 191 199 208 217 216 199 218 223 202 213
213 189 216 227 212 170 220 175 177 166 176 216 224 298 270 273 266 264 256 237 242 239 226 224 225 216 221 227 218 218 212 207 196 184 195 198 214 222 203 201 212 207 206 216
212 198 179 209 190 188 188 99 47 53 99 276 201 182 248 212 214 239 262 268 256 240 216 231 235 232 214 212 205 197 201 217 194 186 202 198 201 205 195 211 209 218 215 215
170 234 266 200 152 177 175 131 24 5 357 231 199 205 256 272 269 234 251 269 279 261 203 209 208 201 188 190 182 138 142 142 127 173 204 215 215 214 216 226 213 205 224 227
192 193 211 196 193 182 195 172 159 188 203 240 157 235 256 243 280 270 250 237 274 260 279 150 181 165 140 145 141 132 113 82 58 62 60 50 40 77 232 245 232 245 246 239
178 248 151 207 169 156 180 209 156 113 47 70 218 287 301 255 271 284 339 324 292 292 155 149 144 167 170 117 78 100 91 76 59 56 66 56 49 47 43 40 43 44 27 30
195 212 197 199 131 218 194 145 177 98 164 265 276 267 240 350 297 39 2 318 310 315 296 116 100 89 76 81 72 69 69 75 67 59 52 51 42 43 42 45 37 36 26 20
251 116 249 126 206 196 161 173 217 167 168 186 223 256 225 240 70 24 10 351 319 277 278 45 78 81 91 75 63 62 58 60 54 54 52 53 44 42 44 43 31 24 25 19
190 182 226 219 256 245 219 189 185 194 240 232 149 265 350 99 77 75 26 360 353 335 291 159 121 82 73 77 73 68 60 62 59 63 60 52 46 40 39 30 22 19 17 12
181 202 217 192 272 269 210 207 227 270 69 208 150 258 218 57 35 14 13 350 11 20 24 53 60 56 64 66 64 57 46 51 49 52 51 44 38 39 35 26 17 15 13 12
360 149 165 211 117 323 194 216 115 187 238 248 232 245 329 341 352 334 21 8 43 27 13 30 43 46 58 55 55 52 52 51 50 52 49 44 33 30 28 24 22 18 15 15
136 197 101 130 108 101 111 44 28 188 145 237 287 283 281 286 291 287 354 65 58 56 40 32 41 37 34 39 39 43 44 41 43 53 47 35 26 27 25 24 19 17 18 11
269 159 98 142 134 109 175 278 264 221 229 249 250 269 225 248 286 44 15 30 49 43 35 55 35 33 27 31 42 41 38 39 42 51 52 32 20 20 17 15 10 15 11 5
209 136 112 201 186 185 222 217 204 210 205 189 206 239 96 36 50 26 8 29 40 42 44 38 46 36 32 26 28 37 27 32 38 37 28 27 20 23 16 9 12 9 3 356
175 131 120 168 151 211 238 239 215 209 239 211 266 67 89 115 102 74 38 45 41 40 34 27 29 33 26 23 30 38 44 38 38 32 24 16 18 18 12 11 10 4 356 353
191 128 171 160 193 291 301 222 183 178 257 203 234 131 121 133 116 23 38 63 62 42 46 43 32 30 22 27 28 36 42 45 40 31 24 10 358 14 18 8 1 358 351 352
182 191 142 122 146 199 233 197 309 101 283 168 154 143 149 152 181 229 107 66 61 47 41 44 29 34 32 19 26 38 37 36 31 16 10 14 4 352 15 5 357 349 344 347
102 53 191 176 205 284 240 157 192 102 239 145 164 155 167 192 151 141 132 96 78 55 37 61 52 42 30 15 24 35 33 27 12 2 3 2 9 355 358 5 356 350 353 347
165 167 197 98 152 263 137 73 178 202 92 143 143 149 119 119 128 126 126 123 110 91 60 46 57 47 31 30 25 32 26 5 360 357 5 359 359 360 1 357 358 356 352 349
261 180 180 179 207 204 268 236 294 37 135 158 135 130 129 126 109 112 115 97 80 79 66 52 50 51 42 29 35 30 0 357 351 346 352 355 356 4 3 358 357 351 343 349
255 183 193 90 239 222 196 123 128 35 104 103 116 127 118 127 137 126 121 117 89 70 66 51 22 17 27 11 31 6 0 348 341 339 351 357 5 1 4 355 347 338 339 347
183 129 187 257 276 320 221 203 148 115 112 99 70 84 126 140 145 151 142 138 138 125 87 74 253 227 224 243 261 353 1 357 352 348 358 360 3 355 351 345 335 334 331 323
185 196 195 249 148 157 189 170 152 143 146 140 126 96 92 134 146 143 140 131 149 139 107 119 243 257 342 354 9 13 17 10 9 5 0 1 347 347 343 336 324 317 317 322